EHI
0 0 0 0 0 0 0 0 0 0 0 0 0 0 0 0 0 0 0 0 0 0 0 0 0 0 0 0 0 0 0 0 0 0 0 0 0 0 0 0 0 0 0 0
0 0 0 0 0 0 0 0 0 0 0 0 0 0 0 0 0 0 0 0 0 0 0 0 0 0 0 0 0 0 0 0 0 0 0 0 0 0 0 0 0 0 0 0
0 0 0 0 0 0 0 0 0 0 0 0 0 0 0 0 0 0 0 0 0 0 0 0 0 0 0 0 0 0 0 0 0 0 0 0 0 0 0 0 0 0 0 0
0 0 0 0 0 0 0 0 0 0 0 0 0 0 0 0 0 0 0 0 0 0 0 0 0 0 0 0 0 0 0 0 0 0 0 0 0 0 0 0 0 0 0 0
0 0 0 0 0 0 0 0 0 0 0 0 0 0 0 0 0 0 0 0 0 0 0 0 0 0 0 0 0 0 0 0 0 0 0 0 0 0 0 0 0 0 0 0
0 0 0 0 0 0 0 0 0 0 0 0 0 0 0 0 0 0 0 0 0 0 0 0 0 0 0 0 0 0 0 0 0 0 0 0 0 0 0 0 0 0 0 0
0 0 0 0 0 0 0 0 0 0 0 0 0 0 0 0 0 0 0 0 0 0 0 0 0 0 0 0 0 0 0 0 0 0 0 0 0 0 0 0 0 0 0 0
0 0 0 0 0 0 0 0 0 0 0 0 0 0 0 0 0 0 0 0 0 0 0 0 0 0 0 0 0 0 0 0 0 0 0 0 0 0 0 0 0 0 0 0
0 0 0 0 0 0 0 0 0 0 0 0 0 0 0 0 0 0 0 0 0 0 0 0 0 0 0 0 0 0 0 0 0 0 0 0 0 0 0 0 0 0 0 0
0 0 0 0 0 0 0 0 0 0 0 0 0 0 0 0 0 0 0 0 0 0 0 0 0 0 0 0 0 0 0 0 0 0 0 0 0 0 0 0 0 0 0 0
0 0 0 0 0 0 0 0 0 0 0 0 0 0 0 0 0 0 0 0 0 0 0 0 0 0 0 0 0 0 0 0 0 0 0 0 0 0 0 0 0 0 0 0
0 0 0 0 0 0 0 0 0 0 0 0 0 0 0 0 0 0 0 0 0 0 0 0 0 0 0 0 0 0 0 0 0 0 0 0 0 0 0 0 0 0 0 0
0 0 0 0 0 0 0 0 0 0 0 0 0 0 0 0 0 0 0 0 0 0 0 0 0 0 0 0 0 0 0 0 0 0 0 0 0 0 0 0 0 0 0 0
0 0 0 0 0 0 0 0 0 0 0 0 0 0 0 0 0 0 0 0 0 0 0 0 0 0 0 0 0 0 0 0 0 0 0 0 0 0 0 0 0 0 0 0
0 0 0 0 0 0 0 0 0 0 0 0 0 0 0 0 0 0 0 0 0 0 0 0 0 0 0 0 0 0 0 0 0 0 0 0 0 0 0 0 0 0 0 0
0 0 0 0 0 0 0 0 0 0 0 0 0 0 0 0 0 0 0 0 0 0 0 0 0 0 0 0 0 0 0 0 0 0 0 0 0 0 0 0 0 0 0 0
0 0 0 0 0 0 0 0 0 0 0 0 0 0 0 0 0 0 0 0 0 0 0 0 0 0 0 0 0 0 0 0 0 0 0 0 0 0 0 0 0 0 0 0
0 0 0 0 0 0 0 0 0 0 0 0 0 0 0 0 0 0 0 0 0 0 0 0 0 0 0 0 0 0 0 0 0 0 0 0 0 0 0 0 0 0 0 0
0 0 0 0 0 0 0 0 0 0 0 0 0 0 0 0 0 0 0 0 0 0 0 0 0 0 0 0 0 0 0 0 0 0 0 0 0 0 0 0 0 0 0 0
0 0 0 0 0 0 0 0 0 0 0 0 0 0 0 0 0 0 0 0 0 0 0 0 0 0 0 0 0 0 0 0 0 0 0 0 0 0 0 0 0 0 0 0
0 0 0 0 0 0 0 0 0 0 0 0 0 0 0 0 0 0 0 0 0 0 0 0 0 0 0 0 0 0 0 0 0 0 0 0 0 0 0 0 0 0 0 0
0 0 0 0 0 0 0 0 0 0 0 0 0 0 0 0 0 0 0 0 0 0 0 0 0 0 0 0 0 0 0 0 0 0 0 0 0 0 0 0 0 0 0 0
0 0 0 0 0 0 0 0 0 0 0 0 0 0 0 0 0 0 0 0 0 0 0 0 0 0 0 0 0 0 0 0 0 0 0 0 0 0 0 0 0 0 0 0
0 0 0 0 0 0 0 0 0 0 0 0 0 0 0 0 0 0 0 0 0 0 0 0 0 0 0 0 0 0 0 0 0 0 0 0 0 0 0 0 0 0 0 0
0 0 0 0 0 0 0 0 0 0 0 0 0 0 0 0 0 0 0 0 0 0 0 0 0 0 0 0 0 0 0 0 0 0 0 0 0 0 0 0 0 0 0 0
0 0 0 0 0 0 0 0 0 0 0 0 0 0 0 0 0 0 0 0 0 0 0 0 0 0 0 0 0 0 0 0 0 0 0 0 0 0 0 0 0 0 0 0
0 0 0 0 0 0 0 0 0 0 0 0 0 0 0 0 0 0 0 0 0 0 0 0 0 0 0 0 0 0 0 0 0 0 0 0 0 0 0 0 0 0 0 0
Wind_Speed
16 17 15 15 16 13 14 14 15 18 20 19 13 11 10 9 8 8 7 6 5 5 5 5 6 6 6 5 3 3 4 5 5 5 4 4 5 7 8 10 11 10 11 11
14 15 16 19 19 18 18 17 19 20 22 16 12 9 9 8 8 7 8 7 6 5 5 5 6 6 6 6 5 4 4 4 4 4 4 4 5 6 7 8 9 10 10 11
10 10 12 16 16 16 15 14 14 16 16 11 10 9 8 7 7 7 7 7 7 6 5 5 6 5 6 6 6 4 4 4 4 3 4 5 4 5 6 8 8 10 11 11
6 6 13 10 5 8 11 11 9 9 9 8 9 8 6 6 6 6 6 7 6 6 6 6 6 6 5 5 5 5 5 4 3 3 4 4 4 5 6 6 8 9 9 9
5 8 12 9 7 6 6 8 6 7 8 8 8 7 5 5 5 6 6 6 5 5 6 6 6 6 5 4 4 5 5 5 4 4 4 4 5 5 5 6 6 7 8 9
7 7 8 5 2 1 2 7 3 3 4 5 6 5 5 7 7 7 7 5 5 5 5 6 6 6 6 5 4 5 5 5 4 4 4 5 5 5 4 5 5 6 7 8
12 10 10 6 1 2 3 6 1 1 3 4 4 5 7 8 8 7 7 6 6 6 5 6 5 6 6 5 5 5 5 5 4 4 4 4 4 4 4 5 6 5 7 7
7 10 11 3 2 4 5 2 2 3 3 5 6 7 8 8 8 8 7 7 7 6 6 6 5 5 6 6 6 5 5 5 4 4 4 4 4 4 5 6 7 6 6 6
9 9 4 2 4 4 3 4 4 4 4 5 6 7 8 8 8 8 7 7 6 7 7 6 5 5 6 7 6 6 5 5 4 4 4 4 5 5 5 6 6 6 6 6
7 8 8 6 6 5 5 5 5 4 5 5 7 7 8 8 8 8 8 7 6 6 7 7 6 5 6 6 6 6 6 5 4 4 4 4 4 5 5 6 6 6 6 6
11 10 9 8 6 5 5 5 5 6 5 5 6 7 8 8 9 8 8 7 6 6 7 8 7 6 6 5 5 6 6 5 5 4 4 3 3 4 5 5 7 8 7 7
9 6 5 5 5 5 5 5 6 6 7 6 6 8 9 9 8 8 8 8 7 8 8 8 7 7 6 5 5 6 6 5 4 3 3 3 3 2 2 4 7 8 8 8
9 7 7 7 5 4 5 6 6 6 7 7 7 8 9 9 8 8 9 9 9 8 8 8 8 8 6 5 5 6 6 5 4 3 3 3 4 4 2 2 4 7 9 10
6 5 6 5 5 5 6 7 7 7 7 7 8 8 9 9 9 9 10 9 9 9 9 8 8 8 7 6 6 6 6 6 5 4 3 3 4 4 4 5 4 3 5 10
4 4 5 6 5 5 5 6 7 7 8 8 7 8 8 10 10 10 10 9 9 9 9 9 9 9 6 6 6 7 6 4 4 3 3 3 4 4 4 5 5 5 4 6
4 5 5 6 6 6 6 6 7 8 8 8 8 8 9 10 10 11 10 9 10 11 10 9 10 9 7 6 7 6 5 6 5 3 3 4 4 4 5 5 5 5 6 6
3 5 5 6 6 6 7 7 7 8 8 9 9 9 10 10 10 11 10 10 10 11 10 10 10 8 7 6 6 5 4 4 5 4 4 4 4 5 5 6 5 5 5 7
3 4 4 5 6 7 7 7 7 8 9 9 10 10 10 10 11 11 11 10 10 10 9 9 9 8 7 6 5 4 3 3 4 4 3 4 4 5 5 6 7 7 6 7
3 3 4 5 5 5 6 7 8 8 9 9 9 10 10 10 11 11 11 10 10 11 9 8 11 9 7 7 6 4 4 4 3 3 3 5 5 5 6 6 7 7 7 7
3 3 4 4 5 5 6 7 8 8 8 8 9 10 11 11 10 11 11 10 8 8 8 9 9 7 6 5 6 3 4 4 4 3 4 4 5 5 6 6 7 7 7 7
4 4 5 5 6 6 6 7 7 9 9 9 9 10 11 11 10 10 9 9 8 8 9 11 7 5 4 4 5 4 4 4 4 4 4 5 5 5 6 7 7 7 7 7
4 4 5 5 6 7 7 6 7 9 9 9 9 10 10 11 10 9 9 8 8 11 8 5 5 6 6 6 3 4 4 4 4 4 4 5 5 6 6 7 7 7 7 8
4 4 5 6 6 7 8 7 7 8 8 9 9 10 10 10 8 8 9 7 6 10 7 5 6 8 8 4 3 4 4 4 4 4 4 5 5 6 6 7 7 8 8 8
4 5 5 6 6 7 8 8 7 7 8 8 8 9 9 8 7 6 7 10 11 11 6 6 8 7 6 2 2 3 3 4 4 4 5 5 5 5 6 7 7 7 8 10
4 4 5 5 6 5 7 7 7 7 7 6 7 8 6 6 7 7 6 7 9 9 5 5 6 5 2 1 2 3 3 3 4 5 5 5 5 6 6 7 8 8 8 8
4 4 4 5 5 5 5 5 6 6 6 7 7 6 6 5 6 6 5 6 6 7 5 3 2 1 0 1 2 3 3 4 4 4 5 5 6 6 7 8 9 8 8 8
4 4 4 4 4 4 4 5 5 6 6 7 8 7 7 6 6 5 5 5 5 4 3 2 2 1 1 2 2 3 3 4 4 5 5 5 5 6 7 8 8 8 8 9
Wind_Direction
257 268 272 267 264 252 241 242 253 266 273 280 291 297 302 306 308 313 314 314 315 317 316 317 317 318 317 308 288 274 259 252 242 230 232 219 213 205 191 185 187 187 187 183
263 262 265 267 263 257 252 250 254 264 271 277 285 295 302 304 310 314 313 313 314 316 316 314 312 312 311 310 304 281 256 256 251 234 227 225 217 206 190 185 185 182 187 187
264 272 279 264 253 251 248 245 250 258 268 290 298 301 301 303 303 302 305 308 310 312 311 309 306 305 302 300 302 291 269 257 240 233 226 226 219 205 192 187 184 185 186 187
269 273 249 248 248 248 256 255 252 265 280 291 294 293 289 297 306 306 312 313 311 315 316 310 305 304 300 300 295 289 279 266 247 229 229 228 213 212 194 186 187 187 185 182
246 252 266 269 263 250 257 268 269 276 291 301 310 305 290 320 327 317 307 303 302 305 309 309 307 308 301 290 289 285 282 274 255 234 226 219 211 211 197 186 188 186 179 179
239 249 256 261 314 5 296 270 275 280 297 314 330 313 301 330 326 320 318 315 314 312 310 309 308 312 303 288 287 282 280 276 261 246 228 222 213 205 195 185 184 184 180 180
238 250 260 264 250 119 222 255 319 329 305 303 287 270 294 315 316 313 310 311 313 313 310 304 308 311 303 295 289 286 285 280 264 251 235 222 215 197 187 178 173 177 177 178
222 238 251 224 170 207 235 284 312 304 296 295 293 300 309 313 313 313 311 311 311 308 302 301 302 304 300 296 293 290 287 281 271 255 236 214 200 190 185 175 170 173 171 172
211 229 254 220 229 243 269 281 283 286 292 296 296 299 305 307 307 305 303 303 304 301 299 297 292 290 290 293 297 295 288 276 268 258 233 213 199 187 185 179 173 173 170 171
257 258 267 263 256 256 257 267 282 288 289 290 289 294 299 300 301 301 299 300 300 298 296 297 293 283 280 290 295 293 285 277 269 256 236 213 204 191 186 183 175 173 170 170
253 263 277 269 272 284 288 288 292 292 285 282 284 289 291 293 294 294 296 298 297 292 290 291 292 289 286 288 290 289 282 276 274 254 225 209 207 206 201 196 186 178 178 174
250 247 248 265 278 291 290 286 287 289 288 285 283 286 288 286 288 291 294 294 292 289 288 288 287 285 285 284 281 279 277 272 268 251 221 202 187 193 216 192 177 179 180 176
254 266 266 273 282 293 293 296 292 284 284 288 287 285 285 285 286 287 290 290 289 288 287 287 286 283 280 275 272 271 269 265 259 243 220 200 183 173 163 110 140 157 163 165
264 274 275 278 285 296 294 297 295 289 285 284 286 288 288 288 289 288 288 288 289 287 284 284 283 282 282 279 269 265 263 258 246 230 218 209 188 176 175 165 157 150 153 155
274 276 275 286 284 286 292 295 292 288 289 290 291 290 291 291 290 289 291 292 290 286 282 282 280 280 280 276 269 261 257 248 233 219 212 210 189 175 172 166 159 152 139 141
294 289 284 283 283 286 291 291 289 290 294 296 296 294 293 290 288 289 290 290 288 285 283 280 278 278 275 268 265 260 251 236 229 218 207 202 187 175 170 164 160 159 154 151
276 277 283 289 291 292 290 288 287 290 293 292 293 295 294 292 290 289 288 287 282 280 279 278 278 277 272 265 262 252 236 221 219 219 209 199 186 177 167 162 164 161 158 161
259 267 280 287 290 294 297 297 295 293 291 293 295 294 292 291 289 290 290 289 286 281 277 274 275 276 267 264 259 241 224 215 211 209 205 195 185 175 165 162 161 158 153 147
306 299 300 300 299 295 293 294 294 293 293 294 292 290 288 287 287 288 289 287 283 283 282 278 279 275 265 258 252 229 216 212 210 205 195 191 190 171 163 162 158 156 151 144
316 315 311 306 304 298 295 295 295 293 293 294 292 291 291 290 290 290 286 278 272 273 281 283 279 269 260 245 242 221 210 206 203 196 189 184 172 163 161 159 153 150 146 143
314 313 311 307 303 300 295 295 296 295 296 294 291 290 290 291 291 290 287 284 282 278 280 283 277 265 253 245 234 212 207 203 196 191 187 174 162 159 156 153 148 146 143 140
306 306 305 304 302 301 300 299 296 295 296 295 292 291 292 293 293 288 277 275 284 289 288 279 274 265 259 254 222 206 203 196 190 184 173 163 156 155 154 152 147 142 141 140
305 306 304 302 301 300 301 299 297 296 296 297 297 295 292 290 290 289 291 288 287 290 291 279 272 271 268 251 215 199 188 181 177 166 157 154 154 153 151 149 145 143 141 139
307 307 306 305 304 302 304 306 304 300 296 294 293 293 292 294 291 283 283 293 297 297 291 282 281 277 269 237 188 173 167 163 159 150 147 148 147 145 144 144 142 139 138 137
308 305 305 309 309 304 303 309 310 306 303 300 300 300 296 292 293 299 302 302 302 305 301 292 290 287 269 186 160 157 155 158 153 144 143 144 143 141 140 140 140 138 136 135
308 304 301 299 298 300 306 309 309 310 313 314 315 314 312 308 304 305 308 311 312 309 311 310 311 301 109 124 129 135 134 138 140 140 138 137 138 137 135 133 133 134 133 131
310 308 307 309 310 310 310 310 311 313 315 315 315 316 317 316 316 320 322 324 326 328 333 341 355 31 83 104 113 118 120 122 126 129 130 132 133 132 132 132 130 130 131 133